User: anonymous
Location: Ostrava
(49.8330°N, 18.2830°E)
Time: 11:37:22
(UTC+02:00)
Language:

NOAA 19 - Orbit

View from above orbital plane
View from above orbital plane
View from above satellite
View from above satellite

Ground track
Ground track

The orbit data is extracted from the following two-line orbital elements,

1 33591U 09005A   14110.45285873  .00000225  00000-0  14809-3 0  2058
2 33591 098.9404 055.6770 0012913 283.3430 214.3140 14.11697265267840
Epoch (UTC): 20 April 2014 10:52:06
Eccentricity: 0.0012913
inclination: 98.9404°
perigee height: 844 km
apogee height: 863 km
right ascension of ascending node: 55.6770°
argument of perigee: 283.3430°
revolutions per day: 14.11697265
mean anomaly at epoch: 214.3140°
orbit number at epoch: 26784

The dashed part of the orbit path shows where the satellite is in the earth's shadow,  

DLR